Location: Ciserano
(45.5833°N, 9.6000°E)
Time: 09:14:28
(UTC+00:00)

NOSS 3-4 (A) - Pass Details

Date: 29 November 2020
Orbit: 879 x 1333 km, 63.4° (Epoch: 22 January)

Event Time Altitude Azimuth Distance (km) Brightness Sun altitude
Exits shadow 04:00:53 72° 235° (SW) 955 3.2 -27.1°
Maximum altitude 04:01:32 85° 308° (NW) 924 3.2 -27.0°
Drops below altitude 10° 04:07:50 10° 38° (NE) 2,724 6.2 -25.9°
Sets 04:10:32 0° 39° (NE) 3,736 7.0 -25.4°
